Eveleth, MN

11:41 AM CDT on July 23, 2016 (GMT -0500)
Eveleth-Virginia Municipal

Weather History for KEVM - May, 2013

Change the Weather History Date:

Thursday, May 16, 2013

  Actual Average Record
Temperature  
Mean Temperature 53 °F -  
Max Temperature 72 °F 60 °F 82 °F (1989)
Min Temperature 34 °F 37 °F 30 °F (2000)
Degree Days  
Heating Degree Days 12    
Growing Degree Days 3 (Base 50)    
Moisture  
Dew Point 32 °F    
Average Humidity 40    
Maximum Humidity 86    
Minimum Humidity 19    
Precipitation  
Precipitation 0.00 in - - ()
Sea Level Pressure  
Sea Level Pressure 29.97 in    
Wind  
Wind Speed 3 mph (NE)    
Max Wind Speed 9 mph    
Max Gust Speed -    
Visibility 10 miles    
Events      
Averages and records for this station are not official NWS values.
T = Trace of Precipitation, MM = Missing Value Source: NWS Daily Summary

Daily Weather History Graph

Daily Weather History Graph

Search for Another Location

Airport or City:

Trip Planner

Search our weather history database for the weather conditions in past years. The results will help you decide how hot, cold, wet, or windy it might be!

Date:

Astronomy

May. 16, 2013 Rise Set
Actual Time 5:31 AM CDT 8:41 PM CDT
Civil Twilight 4:55 AM CDT 9:18 PM CDT
Nautical Twilight 4:07 AM CDT 10:06 PM CDT
Astronomical Twilight 3:08 AM CDT 11:06 PM CDT
Moon 11:13 AM CDT (5/16) 12:56 AM CDT (5/16)
Length of Visible Light 16h 23m
Length of Day
15h 10m
Waxing Crescent, 36% of the Moon is Illuminated
May 16
Waxing Crescent
May 17
First Quarter
May 24
Full
May 31
Last Quarter
Jun 8
New

Hourly Weather History & Observations

Time (CDT) Temp. Windchill Dew Point Humidity Pressure Visibility Wind Dir Wind Speed Gust Speed Precip Events Conditions
12:09 AM 57.6 °F - 37.2 °F 47% 29.86 in 10.0 mi North 3.5 mph - N/A   Clear
12:30 AM 57.6 °F - 35.6 °F 44% 29.87 in 10.0 mi Calm Calm - N/A   Clear
12:49 AM 52.9 °F - 34.7 °F 50% 29.87 in 10.0 mi Calm Calm - N/A   Clear
1:09 AM 45.9 °F 44.6 °F 36.1 °F 69% 29.88 in 10.0 mi NNW 3.5 mph - N/A   Clear
1:30 AM 51.3 °F - 35.6 °F 55% 29.88 in 10.0 mi North 3.5 mph - N/A   Clear
1:49 AM 52.7 °F - 34.9 °F 51% 29.89 in 10.0 mi North 3.5 mph - N/A   Clear
2:09 AM 54.7 °F - 34.5 °F 47% 29.89 in 10.0 mi Calm Calm - N/A   Clear
2:30 AM 52.7 °F - 33.1 °F 47% 29.89 in 10.0 mi Calm Calm - N/A   Clear
2:49 AM 51.1 °F - 34.7 °F 54% 29.90 in 10.0 mi Calm Calm - N/A   Clear
3:09 AM 49.1 °F - 33.8 °F 56% 29.90 in 10.0 mi NNE 3.5 mph - N/A   Clear
3:27 AM 47.5 °F - 32.5 °F 56% 29.91 in 10.0 mi NNE 3.5 mph - N/A   Clear
3:49 AM 41.5 °F - 32.0 °F 69% 29.91 in 10.0 mi Calm Calm - N/A   Clear
4:09 AM 47.5 °F - 33.3 °F 58% 29.92 in 10.0 mi NNE 3.5 mph - N/A   Clear
4:20 AM 42.6 °F - 31.6 °F 65% 29.92 in 10.0 mi Calm Calm - N/A   Clear
4:45 AM 41.0 °F 39.0 °F 33.8 °F 76% 29.93 in 10.0 mi NNE 3.5 mph - N/A   Clear
5:05 AM 37.4 °F - 32.0 °F 81% 29.94 in 10.0 mi Calm Calm - N/A   Clear
5:25 AM - - - N/A% 29.95 in 10.0 mi Calm Calm - N/A   Clear
5:30 AM 39.2 °F - 34.7 °F 84% 29.95 in 10.0 mi Calm Calm - N/A   Clear
5:49 AM 34.9 °F - 31.1 °F 86% 29.96 in 10.0 mi Calm Calm - N/A   Clear
6:10 AM 37.4 °F - 33.1 °F 84% 29.96 in 10.0 mi Calm Calm - N/A   Clear
6:29 AM 37.6 °F - 33.6 °F 86% 29.96 in 10.0 mi Calm Calm - N/A   Clear
6:49 AM 43.0 °F - 36.0 °F 76% 29.97 in 10.0 mi Calm Calm - N/A   Clear
7:10 AM 51.8 °F - 39.9 °F 64% 29.98 in 10.0 mi Calm Calm - N/A   Clear
7:29 AM 54.3 °F - 35.1 °F 48% 29.98 in 10.0 mi ENE 4.6 mph - N/A   Clear
7:49 AM 55.0 °F - 33.3 °F 44% 29.98 in 10.0 mi ENE 9.2 mph - N/A   Clear
8:09 AM 57.6 °F - 34.7 °F 42% 29.98 in 10.0 mi ENE 9.2 mph - N/A   Clear
8:29 AM 57.6 °F - 33.3 °F 40% 29.99 in 10.0 mi ENE 5.8 mph - N/A   Clear
8:49 AM 57.9 °F - 32.4 °F 38% 30.00 in 10.0 mi ENE 4.6 mph - N/A   Clear
9:09 AM 60.1 °F - 31.1 °F 33% 30.00 in 10.0 mi NE 8.1 mph - N/A   Clear
9:29 AM 60.3 °F - 30.4 °F 32% 30.00 in 10.0 mi ENE 6.9 mph - N/A   Clear
9:50 AM 62.8 °F - 31.6 °F 31% 30.00 in 10.0 mi ESE 3.5 mph - N/A   Clear
10:09 AM 62.8 °F - 30.4 °F 30% 30.00 in 10.0 mi ENE 6.9 mph - N/A   Clear
10:29 AM 63.1 °F - 29.1 °F 28% 30.00 in 10.0 mi ENE 9.2 mph - N/A   Clear
10:50 AM 64.4 °F - 29.1 °F 27% 30.00 in 10.0 mi Calm Calm - N/A   Clear
11:09 AM 65.3 °F - 28.9 °F 26% 30.00 in 10.0 mi North 4.6 mph - N/A   Clear
11:29 AM 65.5 °F - 28.4 °F 25% 30.00 in 10.0 mi NE 6.9 mph - N/A   Clear
11:50 AM 66.0 °F - 27.3 °F 23% 30.00 in 10.0 mi North 8.1 mph - N/A   Clear
12:09 PM 67.8 °F - 28.2 °F 23% 30.00 in 10.0 mi NE 6.9 mph - N/A   Clear
12:29 PM 66.7 °F - 27.5 °F 23% 29.99 in 10.0 mi North 5.8 mph - N/A   Clear
12:49 PM 68.2 °F - 28.9 °F 23% 29.98 in 10.0 mi North 6.9 mph - N/A   Clear
1:10 PM 69.8 °F - 29.5 °F 22% 29.98 in 10.0 mi East 4.6 mph - N/A   Clear
1:29 PM 68.9 °F - 28.2 °F 22% 29.98 in 10.0 mi SSW 3.5 mph - N/A   Clear
1:49 PM 72.7 °F - 30.6 °F 21% 29.98 in 10.0 mi North 3.5 mph - N/A   Clear
2:10 PM 72.9 °F - 30.6 °F 21% 29.98 in 10.0 mi NE 6.9 mph - N/A   Clear
2:29 PM 72.9 °F - 29.8 °F 20% 29.98 in 10.0 mi NNW 4.6 mph - N/A   Clear
2:49 PM 72.9 °F - 29.5 °F 20% 29.98 in 10.0 mi ENE 5.8 mph - N/A   Clear
3:09 PM 72.9 °F - 30.2 °F 21% 29.98 in 10.0 mi Calm Calm - N/A   Mostly Cloudy
3:30 PM 72.9 °F - 29.1 °F 20% 29.98 in 10.0 mi North 4.6 mph - N/A   Scattered Clouds
3:49 PM 72.9 °F - 29.8 °F 20% 29.98 in 10.0 mi Calm Calm - N/A   Scattered Clouds
4:09 PM 72.9 °F - 30.0 °F 21% 29.98 in 10.0 mi North 5.8 mph - N/A   Scattered Clouds
4:29 PM 72.9 °F - 29.8 °F 20% 29.98 in 10.0 mi NW 5.8 mph - N/A   Clear
5:10 PM 72.9 °F - 28.6 °F 19% 29.98 in 10.0 mi North 5.8 mph - N/A   Clear
5:29 PM 72.9 °F - 30.0 °F 21% 29.98 in 10.0 mi ENE 8.1 mph - N/A   Clear
5:49 PM 72.9 °F - 32.0 °F 22% 29.99 in 10.0 mi NNE 8.1 mph - N/A   Clear
6:10 PM 70.9 °F - 31.5 °F 23% 29.99 in 10.0 mi NNE 4.6 mph - N/A   Clear
6:29 PM 70.3 °F - 32.0 °F 24% 29.99 in 10.0 mi NNE 6.9 mph - N/A   Clear
6:49 PM 69.4 °F - 32.4 °F 25% 30.00 in 10.0 mi NE 4.6 mph - N/A   Clear
7:10 PM 68.0 °F - 32.0 °F 26% 30.00 in 10.0 mi ENE 4.6 mph - N/A   Clear
7:29 PM 65.5 °F - 31.6 °F 28% 30.00 in 10.0 mi SE 9.2 mph - N/A   Scattered Clouds
7:49 PM 63.9 °F - 31.5 °F 30% 30.00 in 10.0 mi SE 9.2 mph - N/A   Clear
8:10 PM 62.8 °F - 31.6 °F 31% 30.01 in 10.0 mi SE 3.5 mph - N/A   Clear
8:29 PM 60.3 °F - 30.2 °F 32% 30.01 in 10.0 mi ESE 5.8 mph - N/A   Clear
8:49 PM 59.4 °F - 30.6 °F 34% 30.02 in 10.0 mi Calm Calm - N/A   Clear
9:09 PM 57.6 °F - 30.4 °F 36% 30.03 in 10.0 mi Calm Calm - N/A   Clear
9:29 PM 57.6 °F - 30.6 °F 36% 30.03 in 10.0 mi East 3.5 mph - N/A   Clear
9:50 PM 57.6 °F - 32.7 °F 39% 30.04 in 10.0 mi East 3.5 mph - N/A   Clear
10:09 PM 55.2 °F - 32.0 °F 41% 30.03 in 10.0 mi East 4.6 mph - N/A   Mostly Cloudy
10:29 PM 55.0 °F - 32.0 °F 42% 30.03 in 10.0 mi ESE 6.9 mph - N/A   Overcast
10:50 PM 54.0 °F - 32.2 °F 44% 30.03 in 10.0 mi East 5.8 mph - N/A   Scattered Clouds
11:09 PM 52.7 °F - 31.8 °F 45% 30.03 in 10.0 mi East 6.9 mph - N/A   Clear
11:29 PM 52.7 °F - 32.0 °F 45% 30.03 in 10.0 mi ENE 4.6 mph - N/A   Scattered Clouds
11:50 PM 52.7 °F - 32.4 °F 46% 30.03 in 10.0 mi East 4.6 mph - N/A   Overcast